This is the latest recevied weather packets stored in our database for station/object N9WHM. If no packets are shown the sender has not sent any weather packets the latest 10 day(s).
| Time | Temp. | Humidity | Pressure | Rain* | Wind** | Luminosity | Snow |
|---|---|---|---|---|---|---|---|
| 1777464958 | 2.22° C | 98% | 1021.2 hPa | 0 mm | - | 38 W/m² | - |
| 1777464653 | 2.22° C | 98% | 1021 hPa | 0 mm | - | 34 W/m² | - |
| 1777464349 | 2.22° C | 98% | 1020.9 hPa | 0 mm | - | 30 W/m² | - |
| 1777464045 | 1.67° C | 98% | 1020.9 hPa | 0 mm | - | 27 W/m² | - |
| 1777463740 | 1.67° C | 98% | 1020.8 hPa | 0 mm | - | 22 W/m² | - |
| 1777463435 | 1.67° C | 98% | 1020.9 hPa | 0 mm | - | 19 W/m² | - |
| 1777463131 | 1.67° C | 98% | 1020.8 hPa | 0 mm | - | 15 W/m² | - |
| 1777462827 | 1.67° C | 98% | 1020.9 hPa | 0 mm | - | 12 W/m² | - |
| 1777462522 | 1.11° C | 98% | 1020.8 hPa | 0 mm | - | 9 W/m² | - |
| 1777462219 | 1.11° C | 98% | 1020.7 hPa | 0 mm | - | 6 W/m² | - |
| 1777461915 | 1.67° C | 98% | 1020.8 hPa | 0 mm | - | 4 W/m² | - |
| 1777461612 | 1.67° C | 98% | 1020.6 hPa | 0 mm | - | 2 W/m² | - |
| 1777461307 | 1.67° C | 98% | 1020.4 hPa | 0 mm | - | 1 W/m² | - |
| 1777461003 | 1.67° C | 98% | 1020.8 hPa | 0 mm | - | 0 W/m² | - |
| 1777460693 | 1.67° C | 97% | 1020.6 hPa | 0 mm | - | 0 W/m² | - |
| 1777460389 | 1.67° C | 97% | 1020.6 hPa | 0 mm | - | 0 W/m² | - |
| 1777460085 | 2.22° C | 97% | 1020.5 hPa | 0 mm | - | 0 W/m² | - |
| 1777459782 | 2.22° C | 97% | 1020.4 hPa | 0 mm | - | 0 W/m² | - |
| 1777459479 | 2.22° C | 97% | 1020.1 hPa | 0 mm | - | 0 W/m² | - |
| 1777459177 | 2.22° C | 97% | 1020.4 hPa | 0 mm | - | 0 W/m² | - |
| 1777458873 | 2.22° C | 97% | 1020.4 hPa | 0 mm | - | 0 W/m² | - |
| 1777458564 | 2.22° C | 97% | 1020.3 hPa | 0 mm | - | 0 W/m² | - |
| 1777458260 | 2.22° C | 97% | 1020.3 hPa | 0 mm | - | 0 W/m² | - |
| 1777457956 | 2.22° C | 97% | 1020.4 hPa | 0 mm | - | 0 W/m² | - |
| 1777457653 | 2.78° C | 97% | 1020.1 hPa | 0 mm | - | 0 W/m² | - |
* Rain latest hour (hover to see other rain measurements)
** Current wind speed in m/s (hover to see current wind gust speed)